Location: Rowland
(34.5359°N, 79.2929°W)
Time: 03:29:49
(UTC+00:00)

N. Korean satellite - Visible Passes

Search period start: 16 August 2022 00:00
Search period end: 26 August 2022 00:00
Orbit: 433 x 470 km, 97.3° (Epoch: 15 August)

Date Brightness Start Highest point End Pass type
(mag) Time Alt. Az. Time Alt. Az. Time Alt. Az.
17 Aug 9.4 09:40:22 10° NE 09:42:43 17° E 09:45:02 10° SE visible
19 Aug 8.3 10:03:09 10° NNE 10:06:24 35° E 10:09:37 10° SSE visible
20 Aug 9.7 09:30:15 10° ENE 09:31:37 12° E 09:32:58 10° ESE visible
22 Aug 9.0 09:52:17 10° NE 09:55:12 24° E 09:58:04 10° SSE visible
24 Aug 7.3 10:15:10 10° NNE 10:18:36 54° E 10:21:58 10° S visible
25 Aug 9.4 09:41:24 10° NE 09:43:45 17° E 09:46:04 10° SE visible
